Time,TemperatureF,DewpointF,PressureIn,WindDirection,WindDirectionDegrees,WindSpeedMPH,WindSpeedGustMPH,Humidity,HourlyPrecipIn,Conditions,Clouds,dailyrainin,SoftwareType,DateUTC
2013-06-04 00:03:00,53.0,47.0,-100.00,ENE,75,1.0,1.0,82,0.00,,,-99.99,,2013-06-04 04:03:00,
2013-06-04 00:13:00,52.0,48.0,-100.00,South,170,1.0,1.0,85,0.00,,,-99.99,,2013-06-04 04:13:00,
2013-06-04 00:23:00,52.0,48.0,-100.00,South,180,1.0,2.0,85,0.00,,,-99.99,,2013-06-04 04:23:00,
2013-06-04 00:33:00,52.0,48.0,-100.00,South,175,0.0,1.0,85,0.00,,,-99.99,,2013-06-04 04:33:00,
2013-06-04 00:42:00,51.0,47.0,-100.00,SSE,165,1.0,1.0,86,0.00,,,-99.99,,2013-06-04 04:42:00,
2013-06-04 00:53:00,51.0,47.0,-100.00,South,175,0.0,1.0,86,0.00,,,-99.99,,2013-06-04 04:53:00,
2013-06-04 01:02:00,50.0,47.0,-100.00,South,175,0.0,0.0,88,0.00,,,-99.99,,2013-06-04 05:02:00,
2013-06-04 01:12:00,50.0,47.0,-100.00,NNW,330,1.0,1.0,89,0.00,,,-99.99,,2013-06-04 05:12:00,
2013-06-04 01:22:00,50.0,47.0,-100.00,WNW,285,1.0,1.0,90,0.00,,,-99.99,,2013-06-04 05:22:00,
2013-06-04 01:32:00,49.0,46.0,-100.00,NW,315,1.0,1.0,90,0.00,,,-99.99,,2013-06-04 05:32:00,
2013-06-04 01:42:00,48.0,46.0,-100.00,NW,320,0.0,4.0,92,0.00,,,-99.99,,2013-06-04 05:42:00,
2013-06-04 01:52:00,48.0,46.0,-100.00,NNW,335,1.0,3.0,92,0.00,,,-99.99,,2013-06-04 05:52:00,
2013-06-04 02:02:00,48.0,46.0,-100.00,West,275,1.0,1.0,93,0.00,,,-99.99,,2013-06-04 06:02:00,
2013-06-04 02:12:00,48.0,47.0,-100.00,WNW,300,1.0,2.0,94,0.00,,,-99.99,,2013-06-04 06:12:00,
2013-06-04 02:22:00,47.0,46.0,-100.00,NNW,335,4.0,6.0,94,0.00,,,-99.99,,2013-06-04 06:22:00,
2013-06-04 02:32:00,50.0,49.0,-100.00,North,0,3.0,7.0,95,0.00,,,-99.99,,2013-06-04 06:32:00,
2013-06-04 02:42:00,51.0,49.0,-100.00,NNE,15,4.0,7.0,93,0.00,,,-99.99,,2013-06-04 06:42:00,
2013-06-04 02:52:00,50.0,48.0,-100.00,NE,35,2.0,5.0,92,0.00,,,-99.99,,2013-06-04 06:52:00,
2013-06-04 03:02:00,50.0,48.0,-100.00,NE,45,2.0,3.0,92,0.00,,,-99.99,,2013-06-04 07:02:00,
2013-06-04 03:12:00,50.0,48.0,-100.00,North,0,1.0,2.0,92,0.00,,,-99.99,,2013-06-04 07:12:00,
2013-06-04 03:22:00,49.0,47.0,-100.00,NE,50,1.0,2.0,93,0.00,,,-99.99,,2013-06-04 07:22:00,
2013-06-04 03:32:00,49.0,47.0,-100.00,North,5,2.0,3.0,94,0.00,,,-99.99,,2013-06-04 07:32:00,
2013-06-04 03:42:00,49.0,47.0,-100.00,North,5,2.0,3.0,94,0.00,,,-99.99,,2013-06-04 07:42:00,
2013-06-04 03:52:00,48.0,47.0,-100.00,SSE,155,1.0,4.0,95,0.00,,,-99.99,,2013-06-04 07:52:00,
2013-06-04 04:02:00,48.0,47.0,-100.00,SSW,205,1.0,1.0,95,0.00,,,-99.99,,2013-06-04 08:02:00,
2013-06-04 04:12:00,48.0,47.0,-100.00,South,180,1.0,2.0,95,0.00,,,-99.99,,2013-06-04 08:12:00,
2013-06-04 04:22:00,48.0,47.0,-100.00,South,180,0.0,1.0,96,0.00,,,-99.99,,2013-06-04 08:22:00,
2013-06-04 04:32:00,47.0,46.0,-100.00,SSE,155,0.0,2.0,96,0.00,,,-99.99,,2013-06-04 08:32:00,
2013-06-04 04:42:00,47.0,46.0,-100.00,ENE,75,0.0,1.0,96,0.00,,,-99.99,,2013-06-04 08:42:00,
2013-06-04 04:52:00,47.0,46.0,-100.00,ENE,75,0.0,1.0,96,0.00,,,-99.99,,2013-06-04 08:52:00,
2013-06-04 05:02:00,47.0,46.0,-100.00,NNE,20,0.0,1.0,96,0.00,,,-99.99,,2013-06-04 09:02:00,
2013-06-04 05:12:00,47.0,46.0,-100.00,SSE,165,1.0,1.0,96,0.00,,,-99.99,,2013-06-04 09:12:00,
2013-06-04 05:22:00,47.0,46.0,-100.00,East,80,0.0,1.0,96,0.00,,,-99.99,,2013-06-04 09:22:00,
2013-06-04 05:33:00,46.0,45.0,-100.00,West,280,0.0,1.0,96,0.00,,,-99.99,,2013-06-04 09:33:00,
2013-06-04 05:43:00,46.0,45.0,-100.00,WNW,290,2.0,2.0,97,0.00,,,-99.99,,2013-06-04 09:43:00,
2013-06-04 05:53:00,46.0,46.0,-100.00,WSW,245,0.0,2.0,97,0.00,,,-99.99,,2013-06-04 09:53:00,
2013-06-04 06:03:00,46.0,46.0,-100.00,WSW,245,0.0,2.0,97,0.00,,,-99.99,,2013-06-04 10:03:00,
2013-06-04 06:12:00,45.0,45.0,-100.00,WNW,300,2.0,2.0,97,0.00,,,-99.99,,2013-06-04 10:12:00,
2013-06-04 06:23:00,45.0,45.0,-100.00,WNW,300,2.0,2.0,97,0.00,,,-99.99,,2013-06-04 10:23:00,
2013-06-04 06:33:00,46.0,45.0,-100.00,SSW,210,1.0,2.0,97,0.00,,,-99.99,,2013-06-04 10:33:00,
2013-06-04 06:42:00,46.0,45.0,-100.00,West,265,1.0,1.0,98,0.00,,,-99.99,,2013-06-04 10:42:00,
2013-06-04 06:52:00,46.0,46.0,-100.00,WNW,290,1.0,2.0,98,0.00,,,-99.99,,2013-06-04 10:52:00,
2013-06-04 07:02:00,47.0,47.0,-100.00,West,270,1.0,3.0,98,0.00,,,-99.99,,2013-06-04 11:02:00,
2013-06-04 07:12:00,48.0,47.0,-100.00,South,185,0.0,1.0,98,0.00,,,-99.99,,2013-06-04 11:12:00,
2013-06-04 07:22:00,49.0,49.0,-100.00,West,270,1.0,1.0,98,0.00,,,-99.99,,2013-06-04 11:22:00,
2013-06-04 07:32:00,49.0,49.0,-100.00,West,270,1.0,1.0,98,0.00,,,-99.99,,2013-06-04 11:32:00,
2013-06-04 07:42:00,51.0,51.0,-100.00,WSW,255,3.0,4.0,98,0.00,,,-99.99,,2013-06-04 11:42:00,
2013-06-04 07:52:00,52.0,51.0,-100.00,WSW,255,2.0,4.0,98,0.00,,,-99.99,,2013-06-04 11:52:00,
2013-06-04 08:02:00,54.0,54.0,-100.00,WNW,290,1.0,2.0,98,0.00,,,-99.99,,2013-06-04 12:02:00,
2013-06-04 08:12:00,56.0,55.0,-100.00,WNW,300,1.0,2.0,97,0.00,,,-99.99,,2013-06-04 12:12:00,
2013-06-04 08:22:00,57.0,56.0,-100.00,NW,305,1.0,2.0,96,0.00,,,-99.99,,2013-06-04 12:22:00,
2013-06-04 08:32:00,58.0,56.0,-100.00,West,275,1.0,2.0,93,0.00,,,-99.99,,2013-06-04 12:32:00,
2013-06-04 08:42:00,59.0,54.0,-100.00,NNE,25,0.0,1.0,83,0.00,,,-99.99,,2013-06-04 12:42:00,
2013-06-04 08:52:00,59.0,50.0,-100.00,SSE,165,1.0,2.0,73,0.00,,,-99.99,,2013-06-04 12:52:00,
2013-06-04 09:03:00,60.0,50.0,-100.00,North,0,1.0,2.0,69,0.00,,,-99.99,,2013-06-04 13:03:00,
2013-06-04 09:12:00,60.0,49.0,-100.00,NE,50,3.0,4.0,67,0.00,,,-99.99,,2013-06-04 13:12:00,
2013-06-04 09:22:00,61.0,50.0,-100.00,East,100,1.0,3.0,67,0.00,,,-99.99,,2013-06-04 13:22:00,
2013-06-04 09:32:00,61.0,49.0,-100.00,ENE,75,2.0,4.0,65,0.00,,,-99.99,,2013-06-04 13:32:00,
2013-06-04 09:42:00,61.0,49.0,-100.00,ENE,65,4.0,6.0,64,0.00,,,-99.99,,2013-06-04 13:42:00,
2013-06-04 09:52:00,62.0,49.0,-100.00,East,80,4.0,6.0,61,0.00,,,-99.99,,2013-06-04 13:52:00,
2013-06-04 10:02:00,63.0,48.0,-100.00,ENE,70,6.0,7.0,58,0.00,,,-99.99,,2013-06-04 14:02:00,
2013-06-04 10:12:00,63.0,48.0,-100.00,East,85,5.0,7.0,57,0.00,,,-99.99,,2013-06-04 14:12:00,
2013-06-04 10:22:00,64.0,47.0,-100.00,ENE,60,4.0,8.0,55,0.00,,,-99.99,,2013-06-04 14:22:00,
2013-06-04 10:32:00,65.0,48.0,-100.00,East,90,5.0,9.0,54,0.00,,,-99.99,,2013-06-04 14:32:00,
2013-06-04 10:42:00,65.0,46.0,-100.00,East,95,6.0,9.0,51,0.00,,,-99.99,,2013-06-04 14:42:00,
2013-06-04 10:52:00,66.0,48.0,-100.00,NE,50,6.0,9.0,53,0.00,,,-99.99,,2013-06-04 14:52:00,
2013-06-04 11:02:00,66.0,48.0,-100.00,ENE,65,4.0,9.0,52,0.00,,,-99.99,,2013-06-04 15:02:00,
2013-06-04 11:12:00,66.0,47.0,-100.00,ESE,105,6.0,11.0,50,0.00,,,-99.99,,2013-06-04 15:12:00,
2013-06-04 11:22:00,67.0,47.0,-100.00,East,100,7.0,11.0,49,0.00,,,-99.99,,2013-06-04 15:22:00,
2013-06-04 11:33:00,67.0,47.0,-100.00,East,95,4.0,12.0,48,0.00,,,-99.99,,2013-06-04 15:33:00,
2013-06-04 11:42:00,67.0,47.0,-100.00,NNE,25,6.0,10.0,48,0.00,,,-99.99,,2013-06-04 15:42:00,
2013-06-04 11:53:00,67.0,47.0,-100.00,ENE,65,6.0,9.0,48,0.00,,,-99.99,,2013-06-04 15:53:00,
2013-06-04 12:03:00,68.0,47.0,-100.00,ENE,65,9.0,10.0,47,0.00,,,-99.99,,2013-06-04 16:03:00,
2013-06-04 12:13:00,68.0,46.0,-100.00,NE,50,6.0,9.0,46,0.00,,,-99.99,,2013-06-04 16:13:00,
2013-06-04 12:23:00,69.0,48.0,-100.00,NE,55,4.0,9.0,46,0.00,,,-99.99,,2013-06-04 16:23:00,
2013-06-04 12:33:00,69.0,48.0,-100.00,NE,55,4.0,9.0,46,0.00,,,-99.99,,2013-06-04 16:33:00,
2013-06-04 12:42:00,69.0,48.0,-100.00,ENE,70,7.0,9.0,45,0.00,,,-99.99,,2013-06-04 16:42:00,
2013-06-04 12:52:00,69.0,48.0,-100.00,ENE,70,7.0,9.0,45,0.00,,,-99.99,,2013-06-04 16:52:00,
2013-06-04 13:03:00,69.0,47.0,-100.00,NNE,20,8.0,11.0,44,0.00,,,-99.99,,2013-06-04 17:03:00,
2013-06-04 13:12:00,70.0,48.0,-100.00,East,80,4.0,9.0,44,0.00,,,-99.99,,2013-06-04 17:12:00,
2013-06-04 13:23:00,70.0,47.0,-100.00,NE,55,3.0,9.0,44,0.00,,,-99.99,,2013-06-04 17:23:00,
2013-06-04 13:33:00,70.0,47.0,-100.00,NNE,30,6.0,11.0,44,0.00,,,-99.99,,2013-06-04 17:33:00,
2013-06-04 13:42:00,70.0,47.0,-100.00,ESE,110,7.0,9.0,44,0.00,,,-99.99,,2013-06-04 17:42:00,
2013-06-04 13:52:00,71.0,47.0,-100.00,ESE,115,1.0,7.0,42,0.00,,,-99.99,,2013-06-04 17:52:00,
2013-06-04 14:02:00,70.0,46.0,-100.00,ESE,105,6.0,12.0,42,0.00,,,-99.99,,2013-06-04 18:02:00,
2013-06-04 14:12:00,71.0,47.0,-100.00,NE,40,2.0,9.0,42,0.00,,,-99.99,,2013-06-04 18:12:00,
2013-06-04 14:22:00,72.0,48.0,-100.00,East,90,4.0,9.0,42,0.00,,,-99.99,,2013-06-04 18:22:00,
2013-06-04 14:32:00,71.0,47.0,-100.00,ENE,75,9.0,13.0,42,0.00,,,-99.99,,2013-06-04 18:32:00,
2013-06-04 14:42:00,71.0,47.0,-100.00,East,85,4.0,9.0,40,0.00,,,-99.99,,2013-06-04 18:42:00,
2013-06-04 14:52:00,72.0,47.0,-100.00,ENE,75,11.0,13.0,41,0.00,,,-99.99,,2013-06-04 18:52:00,
2013-06-04 15:02:00,71.0,47.0,-100.00,NE,50,8.0,14.0,41,0.00,,,-99.99,,2013-06-04 19:02:00,
2013-06-04 15:12:00,72.0,46.0,-100.00,ENE,70,4.0,9.0,38,0.00,,,-99.99,,2013-06-04 19:12:00,
2013-06-04 15:22:00,73.0,48.0,-100.00,SE,130,7.0,11.0,40,0.00,,,-99.99,,2013-06-04 19:22:00,
2013-06-04 15:33:00,73.0,48.0,-100.00,SE,130,7.0,11.0,40,0.00,,,-99.99,,2013-06-04 19:33:00,
2013-06-04 15:42:00,73.0,46.0,-100.00,NE,55,3.0,11.0,39,0.00,,,-99.99,,2013-06-04 19:42:00,
2013-06-04 15:52:00,74.0,48.0,-100.00,North,350,4.0,6.0,40,0.00,,,-99.99,,2013-06-04 19:52:00,
2013-06-04 16:03:00,72.0,46.0,-100.00,NNE,30,6.0,11.0,39,0.00,,,-99.99,,2013-06-04 20:03:00,
2013-06-04 16:13:00,74.0,47.0,-100.00,East,85,6.0,9.0,38,0.00,,,-99.99,,2013-06-04 20:13:00,
2013-06-04 16:22:00,73.0,48.0,-100.00,NE,40,6.0,10.0,40,0.00,,,-99.99,,2013-06-04 20:22:00,
2013-06-04 16:32:00,74.0,48.0,-100.00,East,85,4.0,6.0,38,0.00,,,-99.99,,2013-06-04 20:32:00,
2013-06-04 16:42:00,74.0,48.0,-100.00,ENE,70,7.0,9.0,40,0.00,,,-99.99,,2013-06-04 20:42:00,
2013-06-04 16:52:00,73.0,47.0,-100.00,North,10,6.0,11.0,39,0.00,,,-99.99,,2013-06-04 20:52:00,
2013-06-04 17:02:00,73.0,47.0,-100.00,NNE,25,7.0,12.0,38,0.00,,,-99.99,,2013-06-04 21:02:00,
2013-06-04 17:12:00,73.0,47.0,-100.00,NE,45,6.0,11.0,38,0.00,,,-99.99,,2013-06-04 21:12:00,
2013-06-04 17:22:00,74.0,47.0,-100.00,SSE,150,2.0,9.0,38,0.00,,,-99.99,,2013-06-04 21:22:00,
2013-06-04 17:33:00,74.0,48.0,-100.00,NE,35,4.0,7.0,39,0.00,,,-99.99,,2013-06-04 21:33:00,
2013-06-04 17:42:00,74.0,48.0,-100.00,NE,35,4.0,7.0,39,0.00,,,-99.99,,2013-06-04 21:42:00,
2013-06-04 17:53:00,73.0,46.0,-100.00,ENE,60,4.0,8.0,38,0.00,,,-99.99,,2013-06-04 21:53:00,
2013-06-04 18:02:00,72.0,47.0,-100.00,East,85,2.0,6.0,40,0.00,,,-99.99,,2013-06-04 22:02:00,
2013-06-04 18:13:00,72.0,47.0,-100.00,East,85,2.0,6.0,40,0.00,,,-99.99,,2013-06-04 22:13:00,
2013-06-04 18:22:00,73.0,47.0,-100.00,ENE,75,6.0,8.0,38,0.00,,,-99.99,,2013-06-04 22:22:00,
2013-06-04 18:32:00,73.0,45.0,-100.00,East,95,2.0,6.0,37,0.00,,,-99.99,,2013-06-04 22:32:00,
2013-06-04 18:42:00,72.0,46.0,-100.00,East,95,6.0,9.0,38,0.00,,,-99.99,,2013-06-04 22:42:00,
2013-06-04 18:52:00,70.0,45.0,-100.00,NE,45,6.0,13.0,40,0.00,,,-99.99,,2013-06-04 22:52:00,
2013-06-04 19:02:00,72.0,47.0,-100.00,ENE,75,6.0,9.0,41,0.00,,,-99.99,,2013-06-04 23:02:00,
2013-06-04 19:12:00,72.0,47.0,-100.00,ENE,70,8.0,12.0,41,0.00,,,-99.99,,2013-06-04 23:12:00,
2013-06-04 19:22:00,72.0,46.0,-100.00,East,95,6.0,12.0,40,0.00,,,-99.99,,2013-06-04 23:22:00,
2013-06-04 19:32:00,72.0,46.0,-100.00,East,80,9.0,11.0,40,0.00,,,-99.99,,2013-06-04 23:32:00,
2013-06-04 19:42:00,71.0,47.0,-100.00,East,90,9.0,12.0,42,0.00,,,-99.99,,2013-06-04 23:42:00,
2013-06-04 19:52:00,70.0,47.0,-100.00,ESE,105,10.0,12.0,42,0.00,,,-99.99,,2013-06-04 23:52:00,
2013-06-04 20:02:00,70.0,47.0,-100.00,ESE,105,11.0,13.0,43,0.00,,,-99.99,,2013-06-05 00:02:00,
2013-06-04 20:12:00,69.0,47.0,-100.00,ESE,105,10.0,13.0,45,0.00,,,-99.99,,2013-06-05 00:12:00,
2013-06-04 20:22:00,69.0,47.0,-100.00,ESE,105,10.0,13.0,45,0.00,,,-99.99,,2013-06-05 00:22:00,
2013-06-04 20:33:00,67.0,47.0,-100.00,ESE,110,9.0,11.0,49,0.00,,,-99.99,,2013-06-05 00:33:00,
2013-06-04 20:42:00,67.0,46.0,-100.00,ESE,110,11.0,15.0,47,0.00,,,-99.99,,2013-06-05 00:42:00,
2013-06-04 20:52:00,67.0,46.0,-100.00,ESE,110,11.0,15.0,47,0.00,,,-99.99,,2013-06-05 00:52:00,
2013-06-04 21:02:00,65.0,46.0,-100.00,ESE,110,10.0,12.0,49,0.00,,,-99.99,,2013-06-05 01:02:00,
2013-06-04 21:12:00,65.0,46.0,-100.00,ESE,115,8.0,11.0,50,0.00,,,-99.99,,2013-06-05 01:12:00,
2013-06-04 21:22:00,64.0,47.0,-100.00,East,100,7.0,9.0,52,0.00,,,-99.99,,2013-06-05 01:22:00,
2013-06-04 21:32:00,64.0,47.0,-100.00,ESE,105,7.0,10.0,53,0.00,,,-99.99,,2013-06-05 01:32:00,
2013-06-04 21:42:00,63.0,47.0,-100.00,East,95,7.0,10.0,54,0.00,,,-99.99,,2013-06-05 01:42:00,
2013-06-04 21:52:00,63.0,47.0,-100.00,East,95,8.0,9.0,56,0.00,,,-99.99,,2013-06-05 01:52:00,
2013-06-04 22:02:00,63.0,47.0,-100.00,East,95,8.0,9.0,56,0.00,,,-99.99,,2013-06-05 02:02:00,
2013-06-04 22:12:00,62.0,47.0,-100.00,East,100,8.0,11.0,57,0.00,,,-99.99,,2013-06-05 02:12:00,
2013-06-04 22:22:00,62.0,48.0,-100.00,East,90,7.0,10.0,59,0.00,,,-99.99,,2013-06-05 02:22:00,
2013-06-04 22:32:00,61.0,48.0,-100.00,East,95,6.0,11.0,61,0.00,,,-99.99,,2013-06-05 02:32:00,
2013-06-04 22:42:00,61.0,48.0,-100.00,East,95,9.0,12.0,61,0.00,,,-99.99,,2013-06-05 02:42:00,
2013-06-04 22:52:00,61.0,48.0,-100.00,East,90,9.0,14.0,61,0.00,,,-99.99,,2013-06-05 02:52:00,
2013-06-04 23:02:00,61.0,48.0,-100.00,East,90,9.0,14.0,61,0.00,,,-99.99,,2013-06-05 03:02:00,
2013-06-04 23:12:00,60.0,48.0,-100.00,ESE,105,7.0,10.0,63,0.00,,,-99.99,,2013-06-05 03:12:00,
2013-06-04 23:22:00,60.0,47.0,-100.00,East,100,8.0,10.0,64,0.00,,,-99.99,,2013-06-05 03:22:00,
2013-06-04 23:33:00,60.0,47.0,-100.00,East,100,8.0,10.0,64,0.00,,,-99.99,,2013-06-05 03:33:00,
2013-06-04 23:43:00,59.0,47.0,-100.00,East,95,6.0,8.0,66,0.00,,,-99.99,,2013-06-05 03:43:00,
2013-06-04 23:53:00,58.0,48.0,-100.00,East,95,6.0,8.0,69,0.00,,,-99.99,,2013-06-05 03:53:00,